Regional Weather Roundup
Issued by NWS

Home | Current Version | Previous Version | Graphics & Text | Print | Product List | Glossary On
Versions: 1 2 3 4 5 6 7 8 9 10 11 12 13 14 15 16 17 18 19 20 21 22 23 24 25 26 27 28 29 30 31 32 33 34 35 36 37 38 39 40 41 42 43 44 45 46 47 48 49 50
000
ASUS45 KABQ 262110
RWRNM
NEW MEXICO REGIONAL WEATHER ROUNDUP
NATIONAL WEATHER SERVICE ALBUQUERQUE NM
300 PM MDT MON SEP 26 2016

NOTE: "FAIR" MEANS FEW OR NO CLOUDS BELOW 12,000 FEET AGL WITH NO
       SIGNIFICANT WEATHER OR OBSTRUCTIONS TO VISION.

      THIS PRODUCT IS RELEASED AS TWO VERSIONS.  ONE VERSION NEAR
      THE TOP OF THE HOUR CONTAINING PRELIMINARY DATA FROM ALBUQUERQUE
      AND OTHER STATIONS.  A FINAL VERSION WITH ADDITIONAL DATA IS
      ISSUED ABOUT 10 MINUTES AFTER THE HOUR.

NMZ501-503-504-510>518-262200-
NORTHWEST PLATEAU/NORTHCENTRAL MOUNTAINS

CITY           SKY/WX    TMP DP  RH WIND       PRES   REMARKS
FARMINGTON     FAIR      72  31  22 VRB5      30.33F
LOS ALAMOS     FAIR      66  32  27 S10       30.44F
SANTA FE       FAIR      67  31  26 S13G21    30.40F
TAOS           FAIR      70  32  24 CALM      30.41F
ANGEL FIRE     FAIR      65  32  29 S5        30.48S

$$
NMZ402-403-502-505>509-262200-
WESTCENTRAL MOUNTAINS/SOUTHWEST MOUNTAINS

CITY           SKY/WX    TMP DP  RH WIND       PRES   REMARKS
GALLUP         FAIR      73  29  19 E9        30.35F
SILVER CITY    CLOUDY    67  35  31 S16G23    30.32F

$$
NMZ407-409-411-412-262200-
SOUTHERN DESERTS

CITY           SKY/WX    TMP DP  RH WIND       PRES   REMARKS
DEMING         CLOUDY    66  38  35 SE15G24   30.30S
LAS CRUCES     CLOUDY    66  33  29 SE15      30.30F
HOLLOMAN AFB   FAIR      75  34  22 W6        30.24F
ALAMOGORDO     FAIR      73  32  21 W6        30.26F
T OR C         CLOUDY    73  32  22 N9        30.28F

$$
NMZ519>523-262200-
CENTRAL VALLEYS/CENTRAL HIGHLANDS

CITY           SKY/WX    TMP DP  RH WIND       PRES   REMARKS
ALBUQUERQUE    PTSUNNY   68  29  23 E16       30.36F
DOUBLE EAGLE   PTSUNNY   66  34  30 SE13      30.39F
MORIARTY ARPT  FAIR      69  26  20 E8        30.41F
CLINES CORNERS FAIR      64  32  30 S12G22    30.44F
BELEN          FAIR      72  29  20 E5        30.35F
SOCORRO        FAIR      76  28  17 E15       30.31F

$$
NMZ524>526-539-540-262200-
SOUTHCENTRAL MOUNTAINS

CITY           SKY/WX    TMP DP  RH WIND       PRES   REMARKS
RUIDOSO        FAIR      57  32  38 SE15G22   30.45F

$$
NMZ527>531-262200-
NORTHEAST HIGHLANDS/NORTHEAST PLAINS

CITY           SKY/WX    TMP DP  RH WIND       PRES   REMARKS
LAS VEGAS      FAIR      65  26  23 VRB6      30.43F
RATON          FAIR      69  34  27 SW7       30.39F
CLAYTON        FAIR      72  35  25 VRB3      30.35F

$$
NMZ532>537-262200-
EASTCENTRAL PLAINS

CITY           SKY/WX    TMP DP  RH WIND       PRES   REMARKS
TUCUMCARI      FAIR      76  34  21 S7        30.32F
CANNON AFB     SUNNY     70  37  30 E12G17    30.33F
CLOVIS AIRPORT FAIR      72  39  30 NE9       30.34F

$$
NMZ028-029-538-262200-
SOUTHEAST PLAINS

CITY           SKY/WX    TMP DP  RH WIND       PRES   REMARKS
ROSWELL        CLOUDY    73  38  27 SE9       30.31F
ARTESIA        FAIR      66  45  45 MISG      30.33F
CARLSBAD       LGT RAIN  61  51  70 S5        30.32F
HOBBS          CLOUDY    64  39  39 E9        30.33F


$$



USA.gov is the U.S. government's official web portal to all federal, state and local government web resources and services.